Location: Moonridge Observatory
(39.2268°N, 77.7914°W)
Time: 01:44:38
(UTC-05:00)

Amateur Radio Satellites - All Passes

Search period start: 10 February 2016 01:14
Search period end: 11 February 2016 01:14
Location: Moonridge Observatory, 39.2268°N, 77.7914°W

Satellite Date Start Highest point End Downlink Frequencies (MHz)
Time Altitude Azimuth
PHONESAT 2.4 10 Feb 01:15:10 01:18:21 49° 159° (SSE) 01:21:32 2401.200-2431.200
BEESAT 10 Feb 01:17:06 01:21:48 64° 74° (ENE) 01:26:32 436.000
BEESAT 2 10 Feb 01:24:43 01:27:33 18° 47° (NE) 01:30:21 435.950
JAS-2 10 Feb 01:30:00 01:35:17 41° 97° (E) 01:40:11 435.910
ITAMSAT 1 10 Feb 01:36:13 01:38:21 12° 90° (E) 01:40:29 435.822/435.867
CUSAT 1 10 Feb 01:44:48 01:52:41 79° 97° (E) 02:00:47 437.405
Cosmos 2491 10 Feb 01:45:35 01:53:55 46° 75° (ENE) 02:02:13 435.465 / 435.565
Oscar 19 10 Feb 02:04:20 02:09:25 62° 287° (WNW) 02:14:27 437.125/150
SWISSCUBE 10 Feb 02:10:02 02:14:18 33° 263° (W) 02:18:37 437.505
DANDE 10 Feb 02:18:02 02:25:39 82° 97° (E) 02:34:13 436.750
AO-7 10 Feb 02:24:35 02:28:40 14° 89° (E) 02:32:44 29.400- 29.500
YUBILEINY 10 Feb 02:34:05 02:42:04 41° 87° (E) 02:50:05 435.215
Gurwin Techsat 1B 10 Feb 02:35:16 02:40:38 87° 285° (WNW) 02:45:57 435.225
BEESAT 3 10 Feb 02:37:30 02:41:20 49° 243° (WSW) 02:45:07 437.485
STARS 10 Feb 02:40:02 02:44:01 34° 70° (ENE) 02:47:59 437.465
ITUPSAT 1 10 Feb 02:48:35 02:51:27 16° 268° (W) 02:54:18 437.325
MOZHAYETS 4 10 Feb 02:50:58 02:54:57 31° 70° (ENE) 02:58:59
PHONESAT 2.4 10 Feb 02:52:19 02:55:36 70° 355° (N) 02:58:52 2401.200-2431.200
KKS-1 10 Feb 02:56:38 03:01:06 82° 256° (WSW) 03:05:35 437.445
BEESAT 10 Feb 02:58:04 03:00:00 12° 269° (W) 03:01:57 436.000
BEESAT 2 10 Feb 03:01:52 03:05:38 41° 244° (WSW) 03:09:22 435.950
ITAMSAT 1 10 Feb 03:13:06 03:18:20 74° 286° (WNW) 03:23:33 435.822/435.867
JAS-2 10 Feb 03:15:41 03:20:05 24° 297° (WNW) 03:24:14 435.910
AIST 2 10 Feb 03:19:39 03:23:18 29° 51° (NE) 03:26:54 435.215
CUSAT 1 10 Feb 03:29:38 03:35:44 23° 294° (WNW) 03:41:52 437.405
Cosmos 2491 10 Feb 03:42:46 03:50:30 37° 274° (W) 03:58:18 435.465 / 435.565
SO-50 10 Feb 04:02:42 04:06:37 25° 111° (ESE) 04:10:36 436.795
DANDE 10 Feb 04:03:36 04:09:37 23° 296° (WNW) 04:16:00 436.750
Cosmos 2504 10 Feb 04:05:06 04:12:29 34° 84° (E) 04:20:05 435.465 / 435.565
AO-7 10 Feb 04:14:11 04:22:34 81° 107° (ESE) 04:30:52 29.400- 29.500
HORYU 2 10 Feb 04:16:04 04:20:17 41° 99° (E) 04:24:29 437.375
STARS 10 Feb 04:17:11 04:20:27 20° 266° (W) 04:23:43 437.465
Gurwin Techsat 1B 10 Feb 04:18:13 04:19:44 11° 301° (WNW) 04:21:16 435.225
MOZHAYETS 4 10 Feb 04:28:28 04:32:08 24° 265° (W) 04:35:49
PHONESAT 2.4 10 Feb 04:29:40 04:32:58 90° 334° (NNW) 04:36:14 2401.200-2431.200
M-CUBED/EXP-1 PRIME 10 Feb 04:29:57 04:33:21 69° 106° (ESE) 04:36:57 437.505
YUBILEINY 10 Feb 04:30:34 04:38:45 42° 286° (WNW) 04:47:02 435.215
AUBIESAT-1 10 Feb 04:39:38 04:43:05 76° 107° (ESE) 04:46:44 437.475
AIST 2 10 Feb 04:58:18 05:01:41 25° 248° (WSW) 05:05:01 435.215
CUBESAT XI-V 10 Feb 05:08:12 05:12:53 89° 100° (E) 05:17:38 437.345
Cubesat XI-IV 10 Feb 05:08:20 05:09:54 11° 89° (E) 05:11:28 437.490
SO-50 10 Feb 05:42:16 05:46:54 41° 308° (NW) 05:51:35 436.795
LilacSat-2 10 Feb 05:44:01 05:46:40 18° 94° (E) 05:49:19 437.200
STRAND 1 10 Feb 05:52:56 05:57:32 35° 69° (ENE) 06:02:10 437.568
HORYU 2 10 Feb 05:53:31 05:56:32 18° 294° (WNW) 05:59:33 437.375
Cosmos 2504 10 Feb 05:57:09 06:05:26 52° 283° (WNW) 06:14:05 435.465 / 435.565
PHONESAT 2.4 10 Feb 06:07:13 06:10:01 26° 208° (SSW) 06:12:48 2401.200-2431.200
AO-7 10 Feb 06:08:19 06:14:25 23° 306° (NW) 06:20:29 29.400- 29.500
CUTE-I 10 Feb 06:31:21 06:36:46 75° 103° (ESE) 06:42:08 437.470
PRISM 10 Feb 06:38:47 06:42:20 28° 69° (ENE) 06:45:54 437.425
GOMX 1 10 Feb 06:40:04 06:43:28 22° 93° (E) 06:46:45 467.674
Cubesat XI-IV 10 Feb 06:45:10 06:50:35 83° 285° (WNW) 06:55:58 437.490
O/OREOS (USA 219) 10 Feb 06:47:11 06:49:22 13° 98° (E) 06:51:33 437.305
BRITE-PL 10 Feb 07:12:47 07:17:32 73° 285° (WNW) 07:21:53 437.365/2234.400
LilacSat-2 10 Feb 07:17:46 07:21:01 27° 289° (WNW) 07:24:13 437.200
CUTE 1.7 + AOD 2 10 Feb 07:25:26 07:27:39 14° 91° (E) 07:29:51 437.475
SEEDS 10 Feb 07:31:54 07:33:29 12° 91° (E) 07:35:06 437.485
STRAND 1 10 Feb 07:32:31 07:36:44 26° 265° (W) 07:41:00 437.568
DOVE 4 10 Feb 07:57:00 08:01:15 83° 100° (E) 08:05:23 437.250
GONETS M04 10 Feb 07:59:56 08:07:20 33° 84° (E) 08:14:44
HO-68 10 Feb 08:06:39 08:13:35 48° 100° (E) 08:20:27 435.675
CANX-2 10 Feb 08:08:57 08:13:08 50° 100° (E) 08:17:18 2200.000
CUTE-I 10 Feb 08:13:18 08:16:08 15° 299° (WNW) 08:18:59 437.470
PRISM 10 Feb 08:14:22 08:17:38 22° 265° (W) 08:20:56 437.425
GOMX 1 10 Feb 08:17:49 08:21:36 29° 291° (WNW) 08:25:15 467.674
O/OREOS (USA 219) 10 Feb 08:23:53 08:28:15 52° 295° (WNW) 08:32:40 437.305
Cubesat XI-IV 10 Feb 08:28:28 08:29:46 11° 302° (WNW) 08:31:06 437.490
CINEMA 3 10 Feb 08:49:06 08:53:15 78° 283° (WNW) 08:57:26 145.822/145.860
COMPASS 1 10 Feb 08:50:31 08:54:45 74° 102° (ESE) 08:58:58 437.405
Oscar 11 10 Feb 08:52:58 08:56:34 25° 95° (E) 09:00:08 145.826/435.025
CUBEBUG 2 10 Feb 08:53:55 08:57:51 39° 98° (E) 09:01:52 437.445
UWE-3 10 Feb 08:54:13 08:57:52 28° 97° (E) 09:01:34 435.000/436.395/437.385
DELFI C3 10 Feb 08:56:44 08:58:47 14° 92° (E) 09:00:49 145.870
CUTE 1.7 + AOD 2 10 Feb 08:59:36 09:03:44 47° 287° (WNW) 09:07:51 437.475
AO-85 10 Feb 09:04:08 09:07:29 17° 107° (ESE) 09:10:55 145.980
Cosmos 2499 10 Feb 09:04:45 09:12:32 39° 86° (E) 09:20:31 435.465 / 435.565
SEEDS 10 Feb 09:05:21 09:09:31 54° 286° (WNW) 09:13:40 437.485
UNISAT 6 10 Feb 09:11:24 09:15:10 30° 70° (ENE) 09:18:54 437.425
RS-15 10 Feb 09:13:24 09:16:04 11° 93° (E) 09:18:44 29.354- 29.394
AAUSAT CUBESAT 2 10 Feb 09:18:55 09:23:05 63° 285° (WNW) 09:27:14 437.432
PCSat 10 Feb 09:19:43 09:21:50 12° 102° (ESE) 09:23:56 145.827
QB50P2 10 Feb 09:24:34 09:24:41 10° 62° (ENE) 09:24:48 145.880/145.840
CANX-2 10 Feb 09:46:18 09:48:33 14° 295° (WNW) 09:50:49 2200.000
ZACube-1 10 Feb 09:47:05 09:51:20 82° 105° (ESE) 09:55:38 437.345
POPSAT HIP 1 10 Feb 09:51:02 09:54:04 20° 67° (ENE) 09:57:07 437.405
HO-68 10 Feb 09:54:47 10:01:00 33° 297° (WNW) 10:07:13 435.675
NANOSAT C BR1 10 Feb 09:55:19 09:58:30 21° 68° (ENE) 10:01:42 145.865
GONETS M04 10 Feb 09:55:22 10:03:44 51° 283° (WNW) 10:12:11
ANTELSAT 10 Feb 09:55:47 10:00:07 84° 257° (WSW) 10:04:25 437.575/2403.000
FUNcube-1 10 Feb 09:55:58 10:00:12 83° 285° (WNW) 10:04:29 145.935
DUCHIFAT 1 10 Feb 09:56:36 09:59:46 21° 68° (ENE) 10:02:55 145.980
TIGRISAT 10 Feb 10:02:33 10:06:52 74° 258° (WSW) 10:11:09 435.000
HUMSAT D 10 Feb 10:02:56 10:06:44 33° 97° (E) 10:10:34 437.325/437.525
QB50P1 10 Feb 10:03:03 10:06:36 27° 69° (ENE) 10:10:08 145.935-145.965
AIST 1 10 Feb 10:22:46 10:27:02 52° 94° (E) 10:31:19
JUGNU 10 Feb 10:27:12 10:28:11 10° 183° (S) 10:29:11 437.505
Oscar 11 10 Feb 10:28:57 10:32:38 27° 290° (WNW) 10:36:17 145.826/435.025
DELFI C3 10 Feb 10:30:03 10:33:54 42° 287° (WNW) 10:37:43 145.870
UWE-3 10 Feb 10:30:55 10:34:12 23° 291° (WNW) 10:37:33 435.000/436.395/437.385
UKube-1 10 Feb 10:30:59 10:31:30 10° 91° (E) 10:32:00 .
CUBEBUG 2 10 Feb 10:31:32 10:34:12 17° 293° (WNW) 10:36:54 437.445
CUBEBUG 1 10 Feb 10:37:46 10:39:27 12° 91° (E) 10:41:07 437.445
50 SAT 10 Feb 10:38:44 10:41:18 17° 94° (E) 10:43:51 437.505
ESTCUBE 1 10 Feb 10:41:21 10:44:39 19° 94° (E) 10:47:55 437.505/2401.250
DX 1 10 Feb 10:41:34 10:44:28 17° 93° (E) 10:47:22 434.975-435.025
AO-85 10 Feb 10:42:07 10:47:26 67° 304° (WNW) 10:52:56 145.980
UNISAT 6 10 Feb 10:48:34 10:51:54 21° 265° (W) 10:55:12 437.425
POLYITAN 1 10 Feb 10:55:02 10:59:16 75° 259° (W) 11:03:30 437.675
BUGSAT 1 10 Feb 10:55:24 10:59:29 50° 74° (ENE) 11:03:32 437.445
QB50P2 10 Feb 10:55:39 10:59:53 71° 258° (WSW) 11:04:08 145.880/145.840
Cosmos 2499 10 Feb 10:57:10 11:05:27 47° 285° (WNW) 11:13:57 435.465 / 435.565
PCSat 10 Feb 10:59:02 11:04:27 81° 299° (WNW) 11:09:55 145.827
RS-15 10 Feb 11:14:58 11:25:49 65° 114° (ESE) 11:37:15 29.354- 29.394
POPSAT HIP 1 10 Feb 11:25:48 11:29:38 33° 262° (W) 11:33:29 437.405
NANOSAT C BR1 10 Feb 11:30:20 11:34:04 30° 263° (W) 11:37:49 145.865
DUCHIFAT 1 10 Feb 11:31:32 11:35:17 31° 263° (W) 11:39:02 145.980
VELOX 1 10 Feb 11:36:35 11:41:00 69° 103° (ESE) 11:45:22 145.980
QB50P1 10 Feb 11:38:53 11:42:20 24° 265° (W) 11:45:46 145.935-145.965
HUMSAT D 10 Feb 11:39:11 11:42:09 19° 292° (WNW) 11:45:09 437.325/437.525
JAS-2 10 Feb 11:40:39 11:46:08 23° 63° (ENE) 11:51:18 435.910
Oscar 19 10 Feb 11:42:28 11:46:13 21° 64° (ENE) 11:49:59 437.125/150
AISAT 10 Feb 11:53:22 11:57:47 73° 284° (WNW) 12:02:08 437.250
AIST 1 10 Feb 12:02:58 12:04:58 13° 290° (WNW) 12:06:59
UKube-1 10 Feb 12:03:40 12:07:57 64° 286° (WNW) 12:12:12 .
SRMSAT 10 Feb 12:03:43 12:05:04 11° 180° (S) 12:06:25 437.500
CUBEBUG 1 10 Feb 12:11:48 12:16:05 55° 287° (WNW) 12:20:18 437.445
50 SAT 10 Feb 12:12:01 12:15:21 29° 289° (WNW) 12:18:41 437.505
SPROUT 10 Feb 12:12:09 12:16:18 50° 100° (E) 12:20:26 437.525
DX 1 10 Feb 12:16:45 12:20:48 38° 289° (WNW) 12:24:49 434.975-435.025
ESTCUBE 1 10 Feb 12:17:22 12:21:34 37° 289° (WNW) 12:25:44 437.505/2401.250
Gurwin Techsat 1B 10 Feb 12:17:53 12:21:12 17° 62° (ENE) 12:24:32 435.225
TISAT 1 10 Feb 12:20:01 12:23:12 21° 95° (E) 12:26:22 437.305
CUSAT 1 10 Feb 12:25:22 12:30:57 46° 74° (ENE) 12:35:08 437.405
AO-85 10 Feb 12:26:19 12:29:01 14° 323° (NW) 12:31:44 145.980
BUGSAT 1 10 Feb 12:33:20 12:35:07 12° 268° (W) 12:36:55 437.445
SO-50 10 Feb 12:35:01 12:38:32 20° 44° (NE) 12:41:57 436.795
PCSat 10 Feb 12:45:58 12:48:43 14° 318° (NW) 12:51:29 145.827
YUBILEINY 10 Feb 12:46:18 12:52:07 19° 63° (ENE) 12:57:53 435.215
ITAMSAT 1 10 Feb 12:52:38 12:56:10 19° 63° (ENE) 12:59:42 435.822/435.867
DANDE 10 Feb 13:02:16 13:09:12 60° 76° (ENE) 13:14:22 436.750
ITUPSAT 1 10 Feb 13:11:48 13:14:24 14° 92° (E) 13:16:58 437.325
VELOX 1 10 Feb 13:15:31 13:16:53 11° 298° (WNW) 13:18:14 145.980
BEESAT 10 Feb 13:19:23 13:22:36 18° 93° (E) 13:25:49 436.000
Oscar 19 10 Feb 13:20:11 13:25:10 48° 260° (W) 13:30:11 437.125/150
AO-7 10 Feb 13:22:10 13:28:09 22° 54° (NE) 13:34:08 29.400- 29.500
JAS-2 10 Feb 13:22:51 13:30:35 74° 258° (WSW) 13:37:40 435.910
RS-15 10 Feb 13:28:30 13:38:54 41° 318° (NW) 13:49:54 29.354- 29.394
SPROUT 10 Feb 13:49:40 13:51:51 14° 295° (WNW) 13:54:02 437.525
TISAT 1 10 Feb 13:55:15 13:58:52 29° 290° (WNW) 14:02:28 437.305
Gurwin Techsat 1B 10 Feb 13:55:23 14:00:37 62° 259° (W) 14:05:54 435.225
Cosmos 2504 10 Feb 14:03:18 14:04:19 10° 55° (NE) 14:05:19 435.465 / 435.565
CUSAT 1 10 Feb 14:09:05 14:12:21 16° 280° (W) 14:15:10 437.405
SWISSCUBE 10 Feb 14:10:35 14:15:24 68° 102° (ESE) 14:20:11 437.505
SO-50 10 Feb 14:14:42 14:19:25 58° 243° (WSW) 14:23:57 436.795
ITAMSAT 1 10 Feb 14:30:08 14:35:11 53° 259° (W) 14:40:18 435.822/435.867
YUBILEINY 10 Feb 14:41:14 14:50:08 88° 259° (W) 14:58:57 435.215
Cosmos 2491 10 Feb 14:45:09 14:53:31 55° 90° (E) 15:01:55 435.465 / 435.565
DANDE 10 Feb 14:46:48 14:51:04 18° 281° (W) 14:54:44 436.750
ITUPSAT 1 10 Feb 14:47:50 14:52:34 57° 287° (WNW) 14:57:16 437.325
KKS-1 10 Feb 14:49:31 14:52:48 20° 94° (E) 14:56:04 437.445
BEESAT 10 Feb 14:56:01 15:00:36 45° 288° (WNW) 15:05:09 436.000
AO-7 10 Feb 15:11:33 15:19:56 85° 252° (WSW) 15:28:22 29.400- 29.500
HORYU 2 10 Feb 15:13:12 15:17:09 33° 70° (ENE) 15:21:07 437.375
JAS-2 10 Feb 15:13:46 15:16:20 12° 272° (W) 15:18:53 435.910
M-CUBED/EXP-1 PRIME 10 Feb 15:16:20 15:20:00 78° 72° (ENE) 15:23:26 437.505
AUBIESAT-1 10 Feb 15:25:33 15:29:12 82° 73° (ENE) 15:32:39 437.475
ISS 10 Feb 15:26:08 15:29:21 67° 139° (SE) 15:32:34 145.825
RS-15 10 Feb 15:48:08 15:56:00 20° 351° (N) 16:04:06 29.354- 29.394
SWISSCUBE 10 Feb 15:50:21 15:52:37 13° 298° (WNW) 15:54:52 437.505
Cosmos 2504 10 Feb 15:51:23 15:59:53 59° 78° (ENE) 16:07:46 435.465 / 435.565
STARS 10 Feb 16:06:14 16:10:38 79° 104° (ESE) 16:14:59 437.465
CUTE-I 10 Feb 16:15:26 16:18:08 14° 60° (ENE) 16:20:50 437.470
MOZHAYETS 4 10 Feb 16:23:18 16:27:58 86° 100° (E) 16:32:37
KKS-1 10 Feb 16:25:26 16:29:26 34° 290° (WNW) 16:33:26 437.445
BEESAT 3 10 Feb 16:27:38 16:31:14 34° 115° (ESE) 16:34:51 437.485
Cubesat XI-IV 10 Feb 16:28:20 16:31:56 19° 63° (ENE) 16:35:32 437.490
YUBILEINY 10 Feb 16:40:39 16:45:34 16° 283° (WNW) 16:50:29 435.215
Cosmos 2491 10 Feb 16:43:13 16:50:42 31° 289° (WNW) 16:58:15 435.465 / 435.565
BRITE-PL 10 Feb 16:45:32 16:48:40 15° 63° (ENE) 16:51:47 437.365/2234.400
HORYU 2 10 Feb 16:50:28 16:53:46 21° 265° (W) 16:57:06 437.375
BEESAT 2 10 Feb 16:52:56 16:56:43 41° 116° (ESE) 17:00:31 435.950
O/OREOS (USA 219) 10 Feb 16:56:03 16:59:47 24° 59° (ENE) 17:03:31 437.305
ISS 10 Feb 17:03:39 17:06:04 19° 337° (NNW) 17:08:29 145.825
CUBESAT XI-V 10 Feb 17:06:30 17:10:21 24° 95° (E) 17:14:07 437.345
AO-7 10 Feb 17:09:13 17:13:45 15° 270° (W) 17:18:19 29.400- 29.500
AO-85 10 Feb 17:36:31 17:39:22 15° 38° (NE) 17:42:05 145.980
Cosmos 2504 10 Feb 17:45:46 17:52:34 28° 278° (W) 17:59:02 435.465 / 435.565
GOMX 1 10 Feb 17:46:06 17:50:34 27° 69° (ENE) 17:54:54 467.674
CUTE-I 10 Feb 17:52:11 17:57:30 76° 257° (WSW) 18:02:52 437.470
LilacSat-2 10 Feb 17:58:02 18:01:50 67° 259° (W) 18:05:38 437.200
RS-15 10 Feb 18:04:47 18:14:29 27° 28° (NNE) 18:24:20 29.354- 29.394
BEESAT 3 10 Feb 18:05:58 18:09:04 21° 312° (NW) 18:12:11 437.485
STRAND 1 10 Feb 18:06:15 18:08:26 13° 90° (E) 18:10:37 437.568
Cubesat XI-IV 10 Feb 18:06:19 18:11:31 56° 259° (W) 18:16:47 437.490
PCSat 10 Feb 18:07:14 18:08:55 11° 39° (NE) 18:10:35 145.827
GONETS M04 10 Feb 18:12:16 18:16:48 15° 61° (ENE) 18:21:21
BRITE-PL 10 Feb 18:20:47 18:26:30 77° 259° (W) 18:32:05 437.365/2234.400
BEESAT 2 10 Feb 18:31:53 18:34:47 19° 313° (NW) 18:37:41 435.950
HO-68 10 Feb 18:34:30 18:40:41 33° 63° (ENE) 18:46:54 435.675
O/OREOS (USA 219) 10 Feb 18:35:07 18:39:13 32° 256° (WSW) 18:43:18 437.305
CUBESAT XI-V 10 Feb 18:43:34 18:47:44 32° 290° (WNW) 18:51:51 437.345
AIST 2 10 Feb 18:53:50 18:58:00 86° 123° (ESE) 19:02:12 435.215
DOVE 4 10 Feb 19:00:24 19:05:30 75° 76° (ENE) 19:10:21 437.250
CANX-2 10 Feb 19:00:53 19:04:34 30° 71° (ENE) 19:08:17 2200.000
Cosmos 2499 10 Feb 19:00:57 19:03:18 11° 57° (ENE) 19:05:35 435.465 / 435.565
AO-85 10 Feb 19:15:37 19:20:48 83° 61° (ENE) 19:25:27 145.980
GOMX 1 10 Feb 19:23:29 19:28:28 37° 263° (W) 19:33:17 467.674
COMPASS 1 10 Feb 19:40:15 19:44:08 41° 73° (ENE) 19:48:04 437.405
STRAND 1 10 Feb 19:42:56 19:48:05 71° 286° (WNW) 19:53:12 437.568
Oscar 11 10 Feb 19:47:25 19:50:16 18° 66° (ENE) 19:53:10 145.826/435.025
PCSat 10 Feb 19:48:00 19:53:25 64° 59° (ENE) 19:58:47 145.827
CINEMA 3 10 Feb 19:49:09 19:53:48 83° 78° (ENE) 19:58:15 145.822/145.860
CUTE 1.7 + AOD 2 10 Feb 19:50:46 19:54:59 79° 259° (W) 19:59:13 437.475
UWE-3 10 Feb 19:50:51 19:54:01 21° 68° (ENE) 19:57:08 435.000/436.395/437.385
CUBEBUG 2 10 Feb 19:51:17 19:55:00 29° 71° (ENE) 19:58:40 437.445
SEEDS 10 Feb 19:55:38 19:59:49 88° 78° (ENE) 20:04:02 437.485
PRISM 10 Feb 19:56:08 20:00:14 51° 100° (E) 20:04:16 437.425
GONETS M04 10 Feb 20:06:21 20:15:12 77° 82° (E) 20:24:02
AAUSAT CUBESAT 2 10 Feb 20:07:50 20:11:56 72° 77° (ENE) 20:16:05 437.432
RS-15 10 Feb 20:17:25 20:29:37 72° 55° (NE) 20:41:56 29.354- 29.394
ISS 10 Feb 20:19:20 20:21:09 14° 17° (NNE) 20:22:57 145.825
HO-68 10 Feb 20:21:16 20:28:07 48° 260° (W) 20:35:02 435.675
AIST 1 10 Feb 20:32:54 20:34:37 12° 70° (ENE) 20:36:18
AIST 2 10 Feb 20:35:31 20:37:06 12° 318° (NW) 20:38:41 435.215
CANX-2 10 Feb 20:37:19 20:40:27 20° 266° (W) 20:43:38 2200.000
ZACube-1 10 Feb 20:41:50 20:45:55 53° 75° (ENE) 20:49:59 437.345
DOVE 4 10 Feb 20:41:54 20:43:34 11° 270° (W) 20:45:13 437.250
Cosmos 2499 10 Feb 20:50:03 20:58:23 65° 79° (E) 21:06:02 435.465 / 435.565
FUNcube-1 10 Feb 20:50:21 20:54:30 65° 76° (ENE) 20:58:38 145.935
HUMSAT D 10 Feb 20:53:59 20:57:01 20° 68° (ENE) 21:00:03 437.325/437.525
AO-85 10 Feb 20:59:34 21:00:22 10° 257° (WSW) 21:01:09 145.980
DELFI C3 10 Feb 21:14:47 21:18:44 88° 257° (WSW) 21:22:45 145.870
COMPASS 1 10 Feb 21:17:34 21:19:54 15° 268° (W) 21:22:16 437.405
Oscar 11 10 Feb 21:22:05 21:26:06 38° 262° (W) 21:30:09 145.826/435.025
UWE-3 10 Feb 21:26:31 21:30:18 31° 263° (W) 21:34:02 435.000/436.395/437.385
CUBEBUG 2 10 Feb 21:28:16 21:31:38 22° 265° (W) 21:34:56 437.445
PCSat 10 Feb 21:32:56 21:36:14 16° 256° (WSW) 21:39:31 145.827
PRISM 10 Feb 21:33:07 21:35:06 13° 296° (WNW) 21:37:04 437.425
DX 1 10 Feb 21:36:51 21:39:15 15° 64° (ENE) 21:41:38 434.975-435.025
ESTCUBE 1 10 Feb 21:40:29 21:43:21 17° 65° (ENE) 21:46:15 437.505/2401.250
ANTELSAT 10 Feb 21:49:01 21:52:22 21° 95° (E) 21:55:44 437.575/2403.000
ISS 10 Feb 21:54:55 21:58:08 60° 36° (NE) 22:01:20 145.825
TIGRISAT 10 Feb 21:55:26 21:58:56 23° 96° (E) 22:02:29 435.000
GONETS M04 10 Feb 22:04:58 22:10:59 21° 280° (W) 22:17:02
AIST 1 10 Feb 22:08:20 22:12:35 54° 266° (W) 22:16:46
ZACube-1 10 Feb 22:21:10 22:22:32 11° 269° (W) 22:23:53 437.345
HUMSAT D 10 Feb 22:28:55 22:32:30 29° 264° (W) 22:36:04 437.325/437.525
RS-15 10 Feb 22:30:55 22:41:11 34° 256° (WSW) 22:51:32 29.354- 29.394
VELOX 1 10 Feb 22:32:38 22:36:58 53° 73° (ENE) 22:41:20 145.980
UNISAT 6 10 Feb 22:39:48 22:44:10 80° 102° (ESE) 22:48:36 437.425
POLYITAN 1 10 Feb 22:42:03 22:45:01 18° 94° (E) 22:47:58 437.675
QB50P2 10 Feb 22:42:34 22:45:39 19° 94° (E) 22:48:42 145.880/145.840
Cosmos 2499 10 Feb 22:44:30 22:50:38 24° 280° (W) 22:56:27 435.465 / 435.565
AISAT 10 Feb 22:49:21 22:53:49 86° 76° (ENE) 22:58:19 437.250
50 SAT 10 Feb 22:50:35 22:54:15 73° 258° (WSW) 22:57:59 437.505
UKube-1 10 Feb 22:56:47 23:01:07 88° 252° (WSW) 23:05:29 .
SPROUT 10 Feb 23:04:53 23:08:44 33° 71° (ENE) 23:12:36 437.525
CUBEBUG 1 10 Feb 23:06:11 23:10:37 79° 259° (WSW) 23:15:03 437.445
DX 1 10 Feb 23:10:44 23:15:00 51° 260° (W) 23:19:18 434.975-435.025
POPSAT HIP 1 10 Feb 23:11:22 23:15:19 39° 98° (E) 23:19:15 437.405
TISAT 1 10 Feb 23:11:41 23:14:05 15° 65° (ENE) 23:16:29 437.305
NANOSAT C BR1 10 Feb 23:15:24 23:19:24 42° 99° (E) 23:23:22 145.865
ESTCUBE 1 10 Feb 23:15:27 23:19:47 46° 261° (W) 23:24:10 437.505/2401.250
DUCHIFAT 1 10 Feb 23:16:22 23:20:21 41° 99° (E) 23:24:18 145.980
QB50P1 10 Feb 23:23:47 23:27:55 56° 100° (E) 23:32:02 145.935-145.965
ANTELSAT 10 Feb 23:25:14 23:29:07 32° 289° (WNW) 23:33:02 437.575/2403.000
TIGRISAT 10 Feb 23:31:53 23:35:36 29° 290° (WNW) 23:39:23 435.000
ISS 10 Feb 23:32:39 23:34:13 13° 231° (SW) 23:35:46 145.825
CUSAT 1 10 Feb 23:47:47 23:50:16 12° 78° (ENE) 23:52:45 437.405
VELOX 1 11 Feb 00:11:33 00:13:44 13° 268° (W) 00:15:57 145.980
BUGSAT 1 11 Feb 00:13:33 00:17:35 79° 285° (WNW) 00:21:35 437.445
POLYITAN 1 11 Feb 00:17:07 00:20:55 33° 289° (WNW) 00:24:42 437.675
QB50P2 11 Feb 00:17:45 00:21:30 32° 289° (WNW) 00:25:15 145.880/145.840
ITUPSAT 1 11 Feb 00:17:51 00:20:42 16° 63° (ENE) 00:23:33 437.325
PHONESAT 2.4 11 Feb 00:20:45 00:23:46 34° 155° (SSE) 00:26:46 2401.200-2431.200
BEESAT 11 Feb 00:25:03 00:28:22 19° 65° (ENE) 00:31:42 436.000
DANDE 11 Feb 00:27:56 00:32:02 15° 78° (ENE) 00:36:18 436.750
JAS-2 11 Feb 00:37:25 00:39:35 12° 88° (E) 00:41:42 435.910
SPROUT 11 Feb 00:41:39 00:44:47 20° 266° (W) 00:47:55 437.525
TISAT 1 11 Feb 00:45:19 00:49:22 45° 260° (W) 00:53:26 437.305
BEESAT 3 11 Feb 00:46:43 00:49:22 17° 46° (NE) 00:51:58 437.485
POPSAT HIP 1 11 Feb 00:48:06 00:50:48 17° 294° (WNW) 00:53:29 437.405
NANOSAT C BR1 11 Feb 00:52:18 00:54:47 15° 294° (WNW) 00:57:15 145.865
DUCHIFAT 1 11 Feb 00:53:12 00:55:42 16° 294° (WNW) 00:58:14 145.980
Cosmos 2491 11 Feb 00:57:19 01:04:15 25° 68° (ENE) 01:11:09 435.465 / 435.565
QB50P1 11 Feb 01:01:31 01:03:13 12° 296° (WNW) 01:04:54 145.935-145.965
